Location: Alma
(38.7220°N, 88.9090°W)
Time: 23:20:32
(UTC-06:00)

Vanguard 2 Rocket - Pass Details

Date: 18 November 2019
Orbit: 554 x 3326 km, 32.9° (Epoch: 05 December)

Event Time Altitude Azimuth Distance (km) Brightness Sun altitude
Rises 03:54:57 0° 265° (W) 3,144 - -32.3°
Reaches altitude 10° 03:56:59 10° 259° (W) 2,406 - -31.9°
Exits shadow 04:02:15 51° 189° (S) 1,368 7.6 -30.8°
Maximum altitude 04:02:25 51° 184° (S) 1,379 7.6 -30.8°
Drops below altitude 10° 04:11:44 10° 112° (ESE) 4,046 11.0 -29.0°
Sets 04:16:10 0° 109° (ESE) 5,519 12.0 -28.1°
